Regional Weather Roundup
Issued by NWS Glasgow, MT

Home | Current Version | Previous Version | Text Only | Print | Product List | Glossary On
Versions: 1 2 3 4 5 6 7 8 9 10 11 12 13 14 15 16 17 18 19 20 21 22 23 24 25 26 27
000
ASUS45 KGGW 210115
RWRGGW
HOURLY REGIONAL WEATHER ROUNDUP FOR NORTHEAST MONTANA
NATIONAL WEATHER SERVICE GLASGOW MONTANA
600 PM MST MON FEB 20 2017

NOTE: "FAIR" INDICATES FEW OR NO CLOUDS BELOW 12,000 FEET WITH NO
SIGNIFICANT WEATHER AND/OR OBSTRUCTIONS TO VISISBILITY.

NORTHEAST MONTANA


CITY           SKY/WX    TMP DP  RH WIND       PRES   REMARKS
GLASGOW        PTCLDY    41  31  67 MISG      29.59F
PLENTYWOOD       N/A     42  23  46 SW7         N/A
WOLF POINT     PTCLDY    39  30  70 E7        29.63F
JORDAN           N/A     52  31  44 SW3       29.61S
WINNETT          N/A     49  32  52 SE7G17      N/A
SIDNEY         PTCLDY    42  25  50 CALM      29.67S
GLENDIVE       CLEAR     49  25  39 SE5       29.67F
MALTA            N/A     48  30  49 E3          N/A
SCOBEY           N/A     39  21  48 CALM      29.65F

FORT PECK REPORTS


CITY           SKY/WX    TMP DP  RH WIND       PRES   REMARKS
FORT PECK        N/A     46  28  49 E8          N/A
THE PINES        N/A     50  26  39 CALM        N/A

SOUTHEAST MONTANA


CITY           SKY/WX    TMP DP  RH WIND       PRES   REMARKS
BILLINGS       CLOUDY    54  28  36 SW23G29   29.63R
MILES CITY     CLOUDY    50  29  44 S8        29.64F
BAKER          CLEAR     39  27  62 SE9       29.69F
LIVINGSTON     CLOUDY    49  29  46 SW39G49   29.65R

CENTRAL MONTANA


CITY           SKY/WX    TMP DP  RH WIND       PRES   REMARKS
HAVRE          CLOUDY    43  37  79 SW12      29.56F
LEWISTOWN      MOCLDY    46  33  60 SW22G37   29.64R
GREAT FALLS    CLOUDY    41  32  70 SW10      29.59R
CUT BANK       PTCLDY    38  30  73 SW15      29.53S
HELENA         CLOUDY    50  30  46 SW7       29.61R
BUTTE          CLOUDY    39  30  70 S8        29.69S
BOZEMAN        CLOUDY    48  32  53 W17       29.70R

WESTERN MONTANA


CITY           SKY/WX    TMP DP  RH WIND       PRES   REMARKS
MISSOULA       RAIN      35  35 100 CALM      29.68R FOG
KALISPELL      NOT AVBL

NORTH DAKOTA


CITY           SKY/WX    TMP DP  RH WIND       PRES   REMARKS
WILLISTON      CLEAR     34  29  82 CALM      29.68S
DICKINSON      CLEAR     37  25  61 S7        29.70S
MINOT          CLEAR     41  34  76 SW10      29.69R
BISMARCK       CLEAR     38  33  82 S6        29.75R

SOUTHERN SASKATCHEWAN


CITY           SKY/WX    TMP DP  RH WIND       PRES   REMARKS
REGINA         PTCLDY    36  32  87 N2        29.64S
ESTEVAN        PTCLDY    34  30  86 S9        29.66S
SWIFT CURRENT  MOCLDY    37  28  70 E7        29.58F





USA.gov is the U.S. government's official web portal to all federal, state and local government web resources and services.